FW7738 Weather Reports


time (UTC)temp
F
wind
direction
speed
knots
gust
knots
rain 1hr
in
rain 24hr
in
rain mn
in
humidity
%
barometer
mb
20260503192029 64 73 1.7 5.2 0.00 0.00 0.00 84 1011.5
20260503191024 64 109 1.7 5.2 0.00 0.00 0.00 84 1011.7
20260503190019 64 87 1.7 5.2 0.00 0.00 0.00 84 1011.7
20260503185054 64 88 3.5 7.0 0.00 0.00 0.00 83 1011.5
20260503184030 64 96 2.6 6.1 0.00 0.00 0.00 82 1011.6
20260503183025 64 92 3.5 7.8 0.00 0.00 0.00 83 1011.5
20260503182021 65 92 4.3 8.7 0.00 0.00 0.00 81 1011.5
20260503181016 65 108 3.5 7.8 0.00 0.00 0.00 81 1011.4
20260503180031 65 89 4.3 8.7 0.00 0.00 0.00 81 1011.1
20260503175027 65 98 5.2 9.6 0.00 0.00 0.00 79 1011.3
20260503174022 65 93 3.5 8.7 0.00 0.00 0.00 80 1011.3
20260503173017 65 103 5.2 8.7 0.00 0.00 0.00 79 1011.3
20260503172033 65 89 2.6 7.8 0.00 0.00 0.00 79 1011.2
20260503171028 65 104 4.3 7.8 0.00 0.00 0.00 78 1011.5
20260503131016 67 90 2.6 7.0 0.00 0.00 0.00 74 1012.6
20260503081037 63 127 3.5 7.0 0.00 0.00 0.00 85 1014.4
20260503072032 63 60 0.9 2.6 0.00 0.00 0.00 91 1014.0
20260503071028 63 52 0.9 1.7 0.00 0.00 0.00 91 1013.8
20260503055030 62 44 0.0 1.7 0.00 0.00 0.00 91 1013.5
20260503054025 62 54 1.7 5.2 0.00 0.00 0.00 91 1013.6
20260503053020 63 45 0.9 3.5 0.00 0.00 0.00 91 1013.5
20260503052015 63 69 0.9 2.6 0.00 0.00 0.00 90 1013.6
20260503051031 63 74 0.9 2.6 0.00 0.00 0.00 90 1013.7
20260503050046 63 81 0.0 1.7 0.00 0.00 0.00 90 1013.6
20260503045022 63 47 0.9 1.7 0.00 0.00 0.00 90 1013.5
20260503044017 63 46 0.9 2.6 0.00 0.00 0.00 90 1013.4
20260503043033 63 59 0.9 1.7 0.00 0.00 0.00 90 1013.4
20260503042028 62 50 0.9 3.5 0.00 0.00 0.00 91 1013.5
20260503041043 62 43 1.7 3.5 0.00 0.00 0.00 91 1013.6
20260503040018 62 47 1.7 3.5 0.00 0.00 0.00 92 1013.5
20260503035034 62 20 2.6 6.1 0.00 0.00 0.00 92 1013.5
20260503034029 62 26 1.7 5.2 0.00 0.00 0.00 92 1013.5
20260503033024 62 26 1.7 5.2 0.00 0.00 0.00 92 1013.7
20260503032020 62 39 1.7 3.5 0.00 0.00 0.00 92 1013.6
20260503031015 63 45 1.7 5.2 0.00 0.00 0.00 92 1013.8
20260503030030 63 32 1.7 3.5 0.00 0.00 0.00 92 1013.9
20260503025046 63 46 1.7 3.5 0.00 0.00 0.00 92 1014.0
20260503024021 63 53 0.9 3.5 0.00 0.00 0.00 92 1014.2
20260503023017 63 52 0.9 2.6 0.00 0.00 0.00 92 1014.2
20260503022052 63 47 0.0 1.7 0.00 0.00 0.00 93 1014.3
20260503021028 63 57 0.9 3.5 0.00 0.00 0.00 93 1014.3
20260503020023 63 66 0.0 0.9 0.00 0.00 0.00 93 1014.3
20260503015018 63 89 1.7 3.5 0.00 0.00 0.00 92 1014.3
20260503014053 63 90 1.7 2.6 0.00 0.00 0.00 92 1014.5
20260503013029 63 70 0.9 1.7 0.00 0.00 0.00 91 1014.6
20260503012024 63 90 2.6 6.1 0.00 0.00 0.00 91 1014.7
20260503011019 63 47 0.9 3.5 0.00 0.00 0.00 91 1014.9
20260503010055 63 50 0.9 2.6 0.00 0.00 0.00 92 1014.9
20260503005030 63 59 0.9 1.7 0.00 0.00 0.00 92 1015.1
20260503004025 63 65 0.9 2.6 0.00 0.00 0.00 92 1015.0
20260503003020 63 62 0.9 3.5 0.00 0.00 0.00 92 1015.2
20260503002016 63 65 0.9 2.6 0.00 0.00 0.00 91 1015.4
20260503001032 63 85 1.7 3.5 0.00 0.00 0.00 91 1015.4
20260503000027 63 74 0.9 5.2 0.00 0.00 0.00 90 1015.6
20260502235042 64 70 0.9 3.5 0.00 0.00 0.00 90 1015.9
20260502234017 64 44 0.9 3.5 0.00 0.00 0.00 90 1015.9
20260502233033 64 34 0.9 1.7 0.00 0.00 0.00 90 1016.0
20260502232028 64 50 1.7 3.5 0.00 0.00 0.00 90 1015.8
20260502231023 64 57 0.0 1.7 0.00 0.00 0.00 90 1016.0
20260502230019 64 66 0.9 3.5 0.00 0.00 0.00 90 1015.9
20260502225034 64 86 0.9 2.6 0.00 0.00 0.00 90 1016.2
20260502224030 64 86 1.7 5.2 0.00 0.00 0.00 90 1016.1
20260502223025 64 81 0.9 3.5 0.00 0.00 0.00 90 1016.2
20260502222020 64 80 0.9 2.6 0.00 0.00 0.00 89 1016.2
20260502221016 64 71 0.9 1.7 0.00 0.00 0.00 89 1016.1
20260502220031 64 70 0.0 1.7 0.00 0.00 0.00 89 1016.1
20260502215027 64 80 0.0 1.7 0.00 0.00 0.00 88 1016.2
20260502214022 64 78 0.9 2.6 0.00 0.00 0.00 89 1016.1
20260502213017 64 79 0.9 1.7 0.00 0.00 0.00 89 1016.4
20260502212032 64 78 0.9 1.7 0.00 0.00 0.00 89 1016.2
20260502211027 64 84 1.7 3.5 0.00 0.00 0.00 88 1016.1
20260502210023 64 85 0.9 2.6 0.00 0.00 0.00 88 1016.2
20260502205018 64 68 0.9 1.7 0.00 0.00 0.00 88 1016.2
20260502204033 64 74 0.0 2.6 0.00 0.00 0.00 88 1016.2
20260502203029 64 90 1.7 3.5 0.00 0.00 0.00 88 1016.3
20260502202044 64 85 1.7 3.5 0.00 0.00 0.00 87 1015.9
20260502201019 64 84 2.6 5.2 0.00 0.00 0.00 87 1016.0
20260502200035 64 88 2.6 5.2 0.00 0.00 0.00 87 1016.0
20260502195050 64 84 3.5 7.0 0.00 0.00 0.00 88 1015.7
20260502194025 64 93 3.5 6.1 0.00 0.00 0.00 88 1015.9
20260502193021 64 85 1.7 5.2 0.00 0.00 0.00 87 1015.8